アッシュ彗星

P/2011 N1 ( ASH ) 2027

English version
Home page
Updated on March 25, 2025

---------------------------------------------------------------------

・ プロフィール

・ 軌道要素

Epoch 2027 Dec. 21.0 TT = JDT 2461760.5
T 2027 Dec. 31.49797 TT                                 MPC
q   2.8338781            (2000.0)            P               Q
n   0.06346654     Peri.  330.61653     +0.57649525     -0.58437103
a   6.2245244      Node    77.54873     +0.81606944     +0.37667421
e   0.5447238      Incl.   35.79336     +0.04103524     +0.71876772
P  15.5
From 259 observations 2011 July 1-2014 Mar. 21, mean residual 0".5.

・ 星図

・ 光度変化

        m1 = 10.5 + 5 logΔ + 10.0 log r(t + 170)

---------------------------------------------------------------------

軌道要素はM.P.E.C. 2014-F39に掲載されたものです。
星図はステラナビゲータ Ver.11 (アストロアーツ) で作成したものです。
光度グラフはComet for Windowsで作成したものです。

---------------------------------------------------------------------

Copyright(C) Seiichi Yoshida (comet@aerith.net). All rights reserved.